C/2020 N1 ( PanSTARRS )

Japanese version
Home page
Updated on April 19, 2021

---------------------------------------------------------------------

* Profile

Discovery Date July 3, 2020
Magnitude 20.7 mag
Discoverer Pan-STARRS 1 telescope (Haleakala)

* Pictures

* Orbital Elements

Epoch 2021 Mar. 7.0 TT = JDT 2459280.5
T 2021 Mar. 12.22550 TT                                 Rudenko
q   1.3206962            (2000.0)            P               Q
z  -0.0004194      Peri.  186.77070     -0.27298341     -0.82905026
 +/-0.0000017      Node   279.98194     +0.90424381     -0.04797503
e   1.0005539      Incl.   29.70358     +0.32836443     -0.55711226
From 722 observations 2020 July 1-2021 Mar. 14, mean residual 0".6.

* Finding Charts

* Magnitudes Graph

        m1 = 14.0 + 5 log d + 7.0 log r(t + 40)

---------------------------------------------------------------------

The orbital elements are published on M.P.E.C. 2021-F115.
The charts are made with StellaNavigator Ver.10 (AstroArts).
The magnitudes graphs are made with Comet for Windows.

---------------------------------------------------------------------

Copyright(C) Seiichi Yoshida (comet@aerith.net). All rights reserved.